www.pogodaiklimat.ru

Погода и климат >> Архив погоды >> Россия >> Хабаровский край >> Аян


АРХИВ ПОГОДЫ в Аяне

Время (UTC), дата Ветер
(напр.,м/с)
 
Видим.   Явления Облачность Т
(С)
Тd
(С)
f
(%)
Тe
(С)
Тes
(С)
Комфортность P
(гПа)
Po
(гПа)
Тmin
(С)
Tmax
(С)
R
(мм)
R24
(мм)
S
(см)
21 14.03 С 1 50 км 10/0
[Cs]
-9.3 -11.7 83 -12 -12 1011.3 1010.5 -13.9 85
00 15.03 ЮВ 1 50 км 10/0
[Cs]
-2.7 -12.0 49 -4 -1 1010.9 1010.1
03 15.03 С 3 50 км 9/0
[Ci fib]
-2.1 -12.7 44 -6 -2 1009.9 1009.1
06 15.03 Ю 2 50 км 10/0
[Ac trans Ci fib]
-4.1 -8.4 72 -8 -6 1009.7 1008.9
09 15.03 ЮЗ 1 50 км 8/0
[Ac trans Ci fib]
-8.5 -12.0 76 -11 -11 1009.9 1009.1 -1.3
12 15.03 С 2 50 км ясно -11.3 -14.2 79 -16 -16 1010.1 1009.3
15 15.03 С 2 50 км ясно -14.7 -17.5 79 -20 -20 1009.6 1008.8
18 15.03 С 1 50 км ясно -15.0 -17.7 80 -18 -18 1009.3 1008.5
21 15.03 С 2 50 км 3/0
[Ci fib]
-18.0 -19.9 85 -23 -23 1009.4 1008.6 -18.2 84
00 16.03 СВ 2 50 км 8/0
[Ac cast Cc]
-7.6 -14.3 59 -12 -9 1009.2 1008.4
03 16.03 С 4 50 км 10/0
[Ac cast Cc]
-7.1 -12.8 64 -14 -11 1009.0 1008.2
06 16.03 С 4 50 км 4/0
[Ac lent Cc]
-7.4 -11.4 73 -14 -13 1008.7 1007.9
09 16.03 С 3 10 км слаб. ливневой снег 8/8 300 м
[Cb cap]
-8.5 -10.1 88 -14 -14 1009.8 1009.0 -6.0 0.0
12 16.03 СВ 2 10 км слаб. снег 10/0
[As op]
-10.0 -11.4 89 -15 -15 1010.5 1009.7
15 16.03 СВ 2 10 км слаб. снег 10/0
[As op]
-11.5 -13.1 88 -16 -16 1010.1 1009.3
18 16.03 С 2 20 км {снег} 10/0
[As trans]
-12.5 -14.2 87 -17 -17 1009.9 1009.1
21 16.03 С 2 20 км слаб. снег 10/0
[As op]
-13.0 -14.8 86 -18 -18 1009.7 1008.9 -14.0 0.5 82
00 17.03 С 3 4000 м слаб. ливневой снег 10/6 300 м
[Cb cap Cs]
-10.9 -13.0 84 -17 -16 1010.2 1009.4
03 17.03 С 3 10 км слаб. снег 10/6 300 м
[Sc diur, vesp Cs]
-11.3 -13.6 83 -17 -15 1009.5 1008.7
06 17.03 С 3 10 км слаб. ливневой снег 10/6 600 м
[Cb cap Cs]
-10.8 -13.6 80 -17 -16 1008.9 1008.1
09 17.03 СВ 2 10 км слаб. снег 10/0
[As op]
-12.1 -14.3 84 -17 -17 1009.5 1008.7 -10.4 0.7
12 17.03 СВ 2 4000 м слаб. ливневой снег 10/8 600 м
[Cb cap As trans]
-12.3 -14.0 87 -17 -17 1009.8 1009.0
15 17.03 С 2 4000 м слаб. ливневой снег 10/10 600 м
[Cb cap]
-12.9 -14.7 86 -18 -18 1008.9 1008.1
18 17.03 С 2 4000 м слаб. ливневой снег 10/5 600 м
[Cb cap Cs]
-14.4 -16.3 85 -19 -19 1009.0 1008.2
21 17.03 С 2 4000 м слаб. ливневой снег 10/5 600 м
[Cb cap Cs]
-14.4 -16.4 85 -19 -19 1009.5 1008.7 -15.5 1 86
00 18.03 СВ 2 10 км слаб. ливневой снег 10/4 600 м
[Cb cap Cs]
-13.3 -16.1 79 -18 -16 1010.7 1009.9
03 18.03 С 3 50 км {ливн. осадки} 10/4 1000 м
[Cu hum Cs]
-11.2 -14.6 76 -17 -14 1011.0 1010.2
06 18.03 С 3 50 км 3/0
[Ci fib]
-11.5 -16.1 69 -17 -15 1011.1 1010.3
09 18.03 С 2 50 км 3/0
[Ci fib]
-15.8 -18.3 81 -21 -21 1012.1 1011.3 -10.5 0.2
12 18.03 С 2 50 км 1/0
[Ci fib]
-20.5 -22.7 82 -26 -26 1013.5 1012.7
15 18.03 С 1 50 км 3/0
[Ci fib]
-22.8 -25.3 80 -26 -26 1013.6 1012.8
18 18.03 С 2 50 км ясно -22.7 -25.5 78 -29 -29 1013.9 1013.0
21 18.03 С 2 50 км 6/0
[Ci fib]
-20.9 -23.2 82 -27 -27 1014.8 1014.0 -24.1 84
00 19.03 СВ 1 50 км 3/0
[Ci fib]
-9.8 -19.0 47 -12 -8 1015.9 1015.1
03 19.03 С 1 50 км 3/0
[Ci fib]
-7.0 -20.3 34 -9 -1 1016.5 1015.7
06 19.03 Ю 3 50 км ясно -8.3 -15.3 57 -14 -11 1016.8 1016.0
09 19.03 штиль 0 50 км 1/0
[Ci fib]
-14.5 -18.6 71 -15 -15 1017.6 1016.8 -6.3
12 19.03 СВ 1 50 км ясно -19.9 -22.2 82 -23 -23 1018.3 1017.5
15 19.03 СВ 1 50 км ясно -19.6 -23.1 74 -23 -23 1018.2 1017.4
18 19.03 С 2 50 км ясно -19.9 -23.5 73 -26 -26 1018.1 1017.3
21 19.03 С 2 50 км ясно -20.5 -23.8 75 -26 -26 1017.7 1016.9 -21.7 81
00 20.03 С 1 50 км 1/0
[Ci fib]
-8.7 -20.9 37 -11 -6 1018.0 1017.2
03 20.03 СВ 2 50 км 3/3 600 м
[Sc]
-7.2 -21.6 31 -11 -6 1018.2 1017.4
06 20.03 Ю 2 50 км ясно -9.5 -15.9 60 -14 -11 1018.8 1018.0
09 20.03 ЮЗ 2 50 км ясно -12.2 -17.8 63 -17 -17 1019.7 1018.9 -6.9
12 20.03 С 2 50 км ясно -20.6 -23.5 77 -27 -27 1021.0 1020.2
15 20.03 С 2 50 км ясно -17.6 -22.7 64 -23 -23 1020.4 1019.6
18 20.03 С 2 50 км ясно -17.9 -23.1 64 -23 -23 1019.6 1018.8
21 20.03 С 2 50 км ясно -16.9 -23.0 59 -22 -22 1019.1 1018.3 -20.8 80
00 21.03 В 1 50 км ясно -7.9 -21.9 31 -10 -5 1018.8 1018.0
03 21.03 Ю 3 50 км ясно -7.5 -15.4 53 -13 -7 1018.2 1017.4
06 21.03 Ю 3 50 км ясно -8.0 -14.8 58 -13 -11 1017.6 1016.8
09 21.03 штиль 0 50 км ясно -13.1 -17.8 68 -13 -13 1017.3 1016.5 -7.3
12 21.03 С 2 50 км ясно -17.8 -21.5 73 -23 -23 1017.7 1016.9
15 21.03 С 2 50 км ясно -18.6 -23.5 65 -24 -24 1016.5 1015.7
18 21.03 С 2 50 км ясно -18.3 -24.1 60 -24 -24 1015.4 1014.6

 

Местоположение метеостанции Аян (Хабаровский край, Россия): широта 56.45 долгота 138.10 высота над уровнем моря 8 м.

В архиве по умолчанию представлена погода в Аяне за последнюю неделю. Архивные данные за месяц целиком и за предыдущие месяцы, начиная с января 2011 года, Вы можете получить, выбрав интересующий диапазон дат из раскрывающегося списка и нажав кнопку "Ввод!".


*Определитесь, кто Вы:
робот инопланетянин человек

Внимание! Время в таблицах - всемирное. Для получения местного времени необходимо прибавить поправку, которая равна 10 ч.

Смотрите также архив погоды в соседних городах и на ближайших метеорологических станциях:

Погода в Нелькане (Хабаровский край, Россия) (180 км)
Погода в Большом Шантаре (Хабаровский край, Россия) (184 км)
Погода в Джане (Хабаровский край, Россия) (257 км)
Погода в Чумикане (Хабаровский край, Россия) (261 км)
Погода в Литке (Хабаровский край, Россия) (311 км)
Погода в Удском (Хабаровский край, Россия) (318 км)
Погода в Улье (Хабаровский край, Россия) (342 км)
Погода в Усть-Юдоме (Якутия, Россия) (352 км)
Погода в Ныврово (Сахалинская область, Россия) (369 км)
Погода в Югоренке (Якутия, Россия) (370 км)

Пояснения к столбцам:

Ветер - указаны скорость ветра в м/с - средняя за 10 мин, порывы в срок и между сроками (в фигурных скобках) и направление, откуда дует ветер: С - северный, СВ - северо-восточный, В - восточный, ЮВ - юго-восточный, Ю - южный, ЮЗ - юго-западный, З - западный, СЗ - северо-западный.
Видимость - горизонтальная дальность видимости в метрах или километрах. При видимости от 1 до 10 км при отсутствии осадков обычно наблюдается дымка, при ухудшении видимости до 1 км и менее - туман. В сухую погоду видимость может ухудшаться дымом, пылью или мглою.
Явления - указаны атмосферные явления, наблюдавшиеся в срок или в последний час перед сроком; фигурными скобками обозначены явления, наблюдавшиеся между сроками (за 1-3 часа до срока); квадратными скобками обозначены град или гололедные отложения с указанием их диаметра в мм.
Облачность - указаны через наклонную черту общая и нижняя облачность в баллах и высота нижней границы облаков в метрах; квадратными скобками обозначены формы облаков: Ci - перистые, Cs - перисто-слоистые, Cc - перисто-кучевые, Ac - высококучевые, As - высокослоистые, Sc - слоисто-кучевые, Ns - слоисто-дождевые, Cu - кучевые, Cb - кучево-дождевые. Подробнее классификацию облаков см. в Атласе облаков (PDF).
T - Температура воздуха - температура, измеренная на высоте 2 м над землей.
Td - Температура точки росы - температура, при понижении до которой содержащийся в воздухе водяной пар достигнет насыщения.
f - Относительная влажность воздуха - влажноcть воздуха, измеренная на высоте 2 м над землей.
Te - Эффективная температура - температура, которую ощущает одетый по сезону человек в тени. Характеристика душности погоды. При расчете учитывается влияние влажности воздуха и скорости ветра на теплоощущения человека.
Tes - Эффективная температура на солнце - температура, которую ощущает человек, с поправкой на солнечный нагрев. Характеристика знойности погоды. Зависит от высоты солнца над горизонтом, облачности и скорости ветра. Ночью, в пасмурную погоду, а также при ветре 12 м/с и более поправка равна нулю.
P - Атмосферное давление - приведенное к уровню моря атмосферное давление.
Po - Атмосферное давление - измеренное на уровне метеостанции атмосферное давление.
Tmin - Минимальная температура - минимум температуры воздуха на высоте 2 м над землей.
Tmax - Максимальная температура - максимум температуры воздуха на высоте 2 м над землей.
R - Количество осадков - Количество выпавших осадков за период времени, мм. При наведении курсора мыши на число - период времени, за который выпало указанное количество осадков.
R24 - Количество осадков - Количество выпавших осадков за 24 часа, мм.
S - Снежный покров - Высота снежного покрова, см. При наведении курсора мыши на число - состояние снежного покрова и степень покрытия местности в баллах.